AirNav   Air Wisconsin pilot careers
 
 383 users online  

KPYP Centre-Piedmont-Cherokee County Regional Airport
Centre, Alabama, USA

GOING TO CENTRE?


FAA INFORMATION EFFECTIVE 08 NOVEMBER 2018

Location

FAA Identifier: PYP
Lat/Long: 34-05-23.7000N / 085-36-36.3000W
34-05.395000N / 085-36.605000W
34.0899167 / -85.6100833
(estimated)
Elevation: 594.6 ft. / 181 m (estimated)
Variation: 04W (2010)
From city: 5 miles S of CENTRE, AL
Time zone: UTC -6 (UTC -5 during Daylight Saving Time)
Zip code: 35960

Airport Operations

Airport use: Open to the public
Activation date: 09/2007
Control tower: no
ARTCC: ATLANTA CENTER
FSS: ANNISTON FLIGHT SERVICE STATION
NOTAMs facility: ANB (NOTAM-D service available)
Attendance: UNATNDD
Wind indicator: lighted
Segmented circle: yes
Lights: ACTVT MIRL RY 07/25 - CTAF.
Beacon: white-green (lighted land airport)
Operates sunset to sunrise.

Airport Communications

CTAF: 122.9
  • APCH/DEP SERVICE PROVIDED BY ATLANTA ARTCC ON FREQS 124.5/270.325 (GADSDEN RCAG).

Nearby radio navigation aids

VOR radial/distance  VOR name  Freq  Var
GADr072/24.5GADSDEN VOR/DME112.3002E
RMGr259/24.8ROME VORTAC115.4001E
TDGr033/37.7TALLADEGA VOR/DME108.8002E

 
NDB name  Hdg/Dist  Freq  Var  ID
FORT PAYNE177/26.142604WFTP ..-. - .--.
CARTERSVILLE264/38.730804WEVZ . ...- --..
CALHOUN246/38.732305WOUK --- ..- -.-
CARROLLTON327/39.527804WGPQ --. .--. --.-

Airport Services

Fuel available: 100LL
Parking: tiedowns

Runway Information

Runway 7/25

Dimensions: 5500 x 100 ft. / 1676 x 30 m
Surface: asphalt/aggregate friction seal coat, in good condition
Runway edge lights: medium intensity
RUNWAY 7  RUNWAY 25
Latitude: 34-05.189240N34-05.601052N
Longitude: 085-37.089855W085-36.118890W
Elevation: 584.4 ft.594.6 ft.
Traffic pattern: leftleft
Runway heading: 067 magnetic, 063 true247 magnetic, 243 true
Markings: nonprecision, in good conditionnonprecision, in good condition
Touchdown point: yes, no lightsyes, no lights
Obstructions: 65 ft. trees, 2929 ft. from runway, 261 ft. left of centerline, 41:1 slope to clearnone

Airport Ownership and Management from official FAA records

Ownership: Publicly-owned
Owner: CPCCR AIRPORT AUTHORITY
P.O. BOX 466
CENTRE, AL 35960
Phone (256) 927-8008
Manager: DONNIE FREE
P.O. 466
CENTRE, AL 35960
Phone (256) 557-0404

Airport Operational Statistics

Aircraft based on the field: 19
Single engine airplanes: 18
Multi engine airplanes: 1
    

Instrument Procedures

NOTE: All procedures below are presented as PDF files. If you need a reader for these files, you should download the free Adobe Reader.

NOT FOR NAVIGATION. Please procure official charts for flight.
FAA instrument procedures published for use from 8 November 2018 at 0901Z to 6 December 2018 at 0900Z.

 
IAPs - Instrument Approach Procedures
RNAV (GPS) RWY 07   download (218KB)
RNAV (GPS) RWY 25   download (193KB)
NOTE: Special Take-Off Minimums/Departure Procedures apply   download (189KB)

Other nearby airports with instrument procedures:

4A4 - Polk County Airport - Cornelius Moore Field (23 nm E)
4A9 - Isbell Field Airport (24 nm N)
KGAD - Northeast Alabama Regional Airport (25 nm W)
KRMG - Richard B. Russell Regional Airport - J.H. Towers Field (27 nm NE)
KANB - Anniston Regional Airport (33 nm S)
 
Loc | Ops | Rwys | IFR | FBO | Links
Com | Nav | Svcs | Stats | Notes


 
Area around KPYP (Centre-Piedmont-Cherokee County Regional Airport)
 
Road maps at: MapQuest Bing Google
 
Aerial photo
WARNING: Photo may not be current or correct
Aerial photo of KPYP (Centre-Piedmont-Cherokee County Regional Airport)
Photo by Harley McGatha
Photo taken 10-Nov-2007
from a PA24-260B Comanche

Do you have a better or more recent aerial photo of Centre-Piedmont-Cherokee County Regional Airport that you would like to share? If so, please send us your photo.

 
Sectional chart

 
Airport distance calculator
Flying to Centre-Piedmont-Cherokee County Regional Airport? Find the distance to fly.

From to KPYP

Sunrise and sunset
Times for 13-Nov-2018
 Local
(UTC-6)
 Zulu
(UTC)
Morning civil twilight05:4811:48
Sunrise06:1412:14
Sunset16:3922:39
Evening civil twilight17:0623:06

Current date and time
Zulu (UTC)  13-Nov-2018 08:08:14
Local (UTC-6)  13-Nov-2018 02:08:14
 
METAR
K4A9 
24nm N 
130755Z AUTO 09005KT 3 1/2SM -RA BR OVC006 08/08 A3001 RMK AO2 P0005 T00840082
KGAD 
24nm W 
130756Z AUTO 06005KT 7SM -RA OVC003 09/09 A3002 RMK AO2 CIG 003V007 SLP171 P0004 T00940094
KRMG 
27nm NE 
130753Z AUTO 00000KT 6SM -RA BR SCT002 BKN024 OVC029 09/08 A3003 RMK AO2 SLP168 P0005 T00890078 $
KANB 
33nm S 
130753Z AUTO 10003KT 7SM -RA OVC017 09/08 A3003 RMK AO2 SLP172 P0004 T00890083 $
K8A0 
33nm W 
130755Z AUTO 00000KT 2 1/2SM BR OVC003 08/08 A3000 RMK AO2 P0001
KPUJ 
35nm E 
130755Z AUTO 00000KT 3SM -RA OVC004 07/07 A3000 RMK AO2
KCTJ 
36nm SE 
130755Z AUTO 00000KT 5SM DZ OVC002 07/07 A3004 RMK AO2 T00700070
KVPC 
38nm E 
130800Z AUTO 00000KT 5SM -RA BR OVC008 08/08 A3003 RMK AO2 P0001 T00830083
KASN 
38nm SW 
130755Z AUTO 09003KT 5SM DZ SCT002 SCT010 OVC019 09/09 A3003 RMK AO2 P0002 T00900090
K9A5 
39nm NE 
130755Z AUTO 00000KT 1 1/2SM BKN005 OVC015 07/07 A3006 RMK AO2 T00680065
TAF
KANB 
33nm S 
130524Z 1306/1406 05005KT 3SM -RA BR OVC008 FM130900 02006KT 3SM -RA BR OVC005 FM131700 34010KT P6SM -RA OVC005
KASN 
38nm SW 
130524Z 1306/1406 35005KT 3SM -DZ BR OVC005 FM131600 34009KT P6SM -RA OVC005
NOTAMs
Click for the latest NOTAMs
NOTAMs are issued by the DoD/FAA and will open in a separate window not controlled by AirNav.

 

 
 

FBO, Fuel Providers, and Aircraft Ground Support

  
 Business Name 
 
 Contact 
 
 Services / Description 
 
Fuel Prices
 
Comments
  
Centre-Piedmont-Cherokee County Regional Airport 256-927-8009
[email]
Airport management, Aviation fuel, Aircraft parking (ramp or tiedown), Hangar leasing / sales, Passenger terminal and lounge, Aircraft maintenance, ...

More info about Centre-Piedmont-Cherokee County Regional Airport
Phillips 66
100LL
SS $4.40 
 Updated 20-Aug-2018
 
   2 read write
SS=Self service
Update Fuel Prices
 

Would you like to see your business listed on this page?

 If your business provides an interesting product or service to pilots, flight crews, aircraft, or users of the Centre-Piedmont-Cherokee County Regional Airport, you should consider listing it here.  To start the listing process, click on the button below
 
Add a business
 

Other Pages about Centre-Piedmont-Cherokee County Regional Airport

Update a link
 
Copyright © AirNav, LLC. All rights reserved. Privacy Policy  Contact